Regional Weather Roundup
Issued by NWS

Home | Current Version | Previous Version | Graphics & Text | Print | Product List | Glossary On
Versions: 1 2 3 4 5 6 7 8 9 10 11 12 13 14 15 16 17 18 19 20 21 22 23 24 25 26 27 28 29 30 31 32 33 34 35 36 37 38 39 40 41 42 43 44 45 46 47 48 49 50
000
ASUS43 KLSX 021707
RWRMO

WEATHER SUMMARY FOR MISSOURI
NATIONAL WEATHER SERVICE SPRINGFIELD MO
1200 PM CDT MON MAY 02 2016

NOTE: "FAIR" INDICATES FEW OR NO CLOUDS BELOW 12,000 FEET WITH NO
       SIGNIFICANT WEATHER AND/OR OBSTRUCTIONS TO VISIBILITY.
       CURRENT SKY AND/OR WEATHER CONDITIONS ARE NOT AVAILABLE FOR
       CHILLICOTHE AND FARMINGTON.

MOZ001>031-035>038-043-044-053-054-021800-
...NORTHERN AND WESTERN MISSOURI...

CITY           SKY/WX    TMP DP  RH WIND       PRES   REMARKS
KANSAS CTY INT CLOUDY    53  45  74 N6        30.12S
KANSAS C DTWN  CLOUDY    54  45  71 N5        30.11F
LEE`S SUMMIT   CLOUDY    51  44  77 N7        30.12R
ST JOSEPH      CLOUDY    54  46  74 N9        30.12S
CHILLICOTHE      N/A     56  46  69 N7        30.12R
KIRKSVILLE     CLOUDY    56  44  64 N9        30.09S

$$
MOZ066>068-077>081-088>096-101>105-021800-
...SOUTHWEST MISSOURI...

CITY           SKY/WX    TMP DP  RH WIND       PRES   REMARKS
SPRINGFIELD    CLOUDY    55  45  68 NW7       30.09S
JOPLIN         PTSUNNY   53  46  77 NW6       30.13S
BRANSON        CLOUDY    52  48  87 CALM      30.11R

$$
MOZ032>034-039>042-045>050-055>058-069>072-021800-
...CENTRAL MISSOURI...

CITY           SKY/WX    TMP DP  RH WIND       PRES   REMARKS
COLUMBIA       CLOUDY    53  46  77 N6        30.09S
JEFFERSON CITY CLOUDY    54  45  71 W6        30.09S
ROLLA          CLOUDY    52  45  77 NW3       30.07R
SEDALIA        CLOUDY    53  46  77 NW5       30.11S
WARRENSBURG    CLOUDY    54  45  71 NW7       30.11S
OSAGE BEACH    CLOUDY    54  39  58 W8        30.09S

$$
MOZ051-052-059>065-021800-
...EAST CENTRAL MISSOURI...

CITY           SKY/WX    TMP DP  RH WIND       PRES   REMARKS
ST LOUIS INTL  CLOUDY    57  46  66 NW3       30.07R
SPIRIT OF STL  CLOUDY    54  48  80 W3        30.07R
ST CHARLES     CLOUDY    55  48  77 N7        30.06S

$$
MOZ072>076-082>087-097>100-106>115-021800-
...SOUTH CENTRAL AND SOUTHEAST MISSOURI...

CITY           SKY/WX    TMP DP  RH WIND       PRES   REMARKS
CAPE GIRARDEAU CLOUDY    61  49  64 CALM      30.04S
POPLAR BLUFF   CLOUDY    62  49  62 E3        30.04F
WEST PLAINS    CLOUDY    63  47  55 VRB7      30.07R

$$



USA.gov is the U.S. government's official web portal to all federal, state and local government web resources and services.